Change the Weather History Date:

Saturday, January 25, 2014

  Actual Average (KFLL) Record (KFLL)
Temperature  
Mean Temperature 62 °F 69 °F  
Max Temperature 75 °F 77 °F 86 °F (1965)
Min Temperature 50 °F 62 °F 36 °F (1940)
Degree Days  
Heating Degree Days 2 1  
Month to date heating degree days 41  
Since 1 July heating degree days 73  
Cooling Degree Days 0 6  
Month to date cooling degree days 136  
Year to date cooling degree days 136  
Growing Degree Days 12 (Base 50)    
Moisture  
Dew Point 54 °F    
Average Humidity 78    
Maximum Humidity 97    
Minimum Humidity 45    
Precipitation  
Precipitation 0.00 in 0.16 in 1.08 in (1925)
Month to date precipitation 2.56  
Year to date precipitation 2.56  
Snow  
Snow 0.00 in - - ()
Month to date snowfall  
Since 1 July snowfall  
Snow Depth -    
Sea Level Pressure  
Sea Level Pressure 30.15 in    
Wind  
Wind Speed 5 mph (West)    
Max Wind Speed 10 mph    
Max Gust Speed -    
Visibility 10 miles    
Events      
T = Trace of Precipitation, MM = Missing Value Source: NWS Daily Summary

Daily Weather History Graph

Daily Weather History Graph

Search for Another Location

Airport or City:

Trip Planner

Search our weather history database for the weather conditions in past years. The results will help you decide how hot, cold, wet, or windy it might be!

Date:

Astronomy

Jan. 25, 2014 Rise Set
Actual Time 7:07 AM EST 5:59 PM EST
Civil Twilight 6:43 AM EST 6:23 PM EST
Nautical Twilight 6:15 AM EST 6:51 PM EST
Astronomical Twilight 5:47 AM EST 7:18 PM EST
Moon 1:40 AM EST (1/25) 12:57 PM EST (1/25)
Length of Visible Light 11h 40m
Length of Day
10h 51m
Waning Crescent, 34% of the Moon is Illuminated
Jan 25
Waning Crescent
Jan 30
New
Feb 6
First Quarter
Feb 14
Full
Feb 22
Last Quarter

Hourly Weather History & Observations

Time (EST) Temp. Dew Point Humidity Pressure Visibility Wind Dir Wind Speed Gust Speed Precip Events Conditions
12:53 AM 53.1 °F 50.0 °F 89% 30.23 in 10.0 mi NNW 5.8 mph - N/A   Clear
1:53 AM 52.0 °F 48.9 °F 89% 30.22 in 10.0 mi NNW 5.8 mph - N/A   Clear
2:53 AM 51.1 °F 48.9 °F 92% 30.21 in 10.0 mi NNW 5.8 mph - N/A   Clear
3:53 AM 50.0 °F 48.9 °F 96% 30.19 in 10.0 mi NNW 5.8 mph - N/A   Clear
4:53 AM 50.0 °F 48.9 °F 96% 30.19 in 10.0 mi NW 3.5 mph - N/A   Clear
5:53 AM 50.0 °F 48.9 °F 96% 30.19 in 10.0 mi Calm Calm - N/A   Clear
6:53 AM 50.0 °F 48.9 °F 96% 30.20 in 10.0 mi NNW 5.8 mph - N/A   Clear
7:53 AM 52.0 °F 51.1 °F 97% 30.20 in 10.0 mi North 4.6 mph - N/A   Clear
8:53 AM 57.0 °F 53.1 °F 87% 30.20 in 10.0 mi Calm Calm - N/A   Clear
9:53 AM 62.1 °F 55.9 °F 80% 30.21 in 10.0 mi Calm Calm - N/A   Scattered Clouds
10:53 AM 71.1 °F 57.9 °F 63% 30.19 in 10.0 mi ESE 5.8 mph - N/A   Clear
11:53 AM 72.0 °F 57.0 °F 59% 30.15 in 10.0 mi ESE 6.9 mph - N/A   Scattered Clouds
12:53 PM 72.0 °F 57.0 °F 59% 30.13 in 10.0 mi Calm Calm - N/A   Overcast
1:53 PM 73.0 °F 55.0 °F 53% 30.09 in 10.0 mi SW 4.6 mph - N/A   Scattered Clouds
2:53 PM 75.9 °F 53.1 °F 45% 30.08 in 10.0 mi WNW 10.4 mph - N/A   Scattered Clouds
3:53 PM 73.9 °F 53.1 °F 48% 30.07 in 10.0 mi WNW 6.9 mph - N/A   Mostly Cloudy
4:53 PM 72.0 °F 60.1 °F 66% 30.07 in 10.0 mi SSE 4.6 mph - N/A   Overcast
5:53 PM 70.0 °F 57.9 °F 65% 30.08 in 10.0 mi South 8.1 mph - N/A   Overcast
6:53 PM 69.1 °F 59.0 °F 70% 30.09 in 10.0 mi South 4.6 mph - N/A   Scattered Clouds
7:53 PM 66.9 °F 59.0 °F 76% 30.09 in 10.0 mi South 3.5 mph - N/A   Partly Cloudy
8:53 PM 66.0 °F 59.0 °F 78% 30.09 in 10.0 mi South 3.5 mph - N/A   Clear
9:53 PM 63.0 °F 57.9 °F 84% 30.11 in 10.0 mi SSW 3.5 mph - N/A   Clear
10:53 PM 62.1 °F 59.0 °F 90% 30.12 in 10.0 mi WSW 3.5 mph - N/A   Clear
11:53 PM 60.1 °F 57.9 °F 93% 30.12 in 10.0 mi WNW 4.6 mph - N/A   Clear